When you browse on this site, cookies collect data to enhance your experience and personalize the content and advertising you see.
Visit our Privacy Policy to learn more. By continuing to use the site, you agree to this use of cookies and data.
  • In Portugal
  • List of Countries
  • For 7 days
  • Water Temperature
  • Weather Map
  • Weather Widgets
  • user-avatar
    Login

    Hourly Weather Nakhchivan

    Today, 21 August, Wednesday

    Time Temperature Precipitation Wind Pressure Humidity
    00:00 +27°C° 0 mm 2 mps 689 mmHg 18%
    01:00 +26°C° 0 mm 2 mps 689 mmHg 20%
    02:00 +25°C° 0 mm 1 mps 689 mmHg 22%
    03:00 +24°C° 0 mm 1 mps 689 mmHg 23%
    04:00 +24°C° 0 mm 1 mps 689 mmHg 24%
    05:00 +24°C° 0 mm 1 mps 689 mmHg 24%
    06:00 +24°C° 0 mm 1 mps 690 mmHg 24%
    07:00 +27°C° 0 mm 1 mps 690 mmHg 21%
    08:00 +29°C° 0 mm 1 mps 690 mmHg 18%
    09:00 +31°C° 0 mm 2 mps 690 mmHg 14%
    10:00 +34°C° 0 mm 2 mps 690 mmHg 12%
    11:00 +36°C° 0 mm 2 mps 690 mmHg 11%
    12:00 +37°C° 0 mm 2 mps 690 mmHg 9%
    13:00 +39°C° 0 mm 3 mps 689 mmHg 8%
    14:00 +40°C° 0 mm 3 mps 689 mmHg 7%
    15:00 +42°C° 0 mm 4 mps 689 mmHg 7%
    16:00 +41°C° 0 mm 4 mps 688 mmHg 8%
    17:00 +40°C° 0 mm 4 mps 688 mmHg 9%
    18:00 +39°C° 0 mm 5 mps 688 mmHg 10%
    19:00 +35°C° 0 mm 4 mps 687 mmHg 12%
    20:00 +33°C° 0 mm 4 mps 687 mmHg 15%
    21:00 +30°C° 0 mm 3 mps 687 mmHg 17%
    22:00 +29°C° 0 mm 3 mps 687 mmHg 19%
    23:00 +28°C° 0 mm 2 mps 687 mmHg 20%

    Tomorrow, 22 August, Thursday

    Time Temperature Precipitation Wind Pressure Humidity
    00:00 +27°C° 0 mm 2 mps 687 mmHg 21%
    01:00 +26°C° 0 mm 2 mps 687 mmHg 23%
    02:00 +25°C° 0 mm 2 mps 687 mmHg 24%
    03:00 +25°C° 0 mm 2 mps 686 mmHg 25%
    04:00 +25°C° 0 mm 2 mps 686 mmHg 26%
    05:00 +25°C° 0 mm 1 mps 686 mmHg 26%
    06:00 +24°C° 0 mm 1 mps 686 mmHg 27%
    07:00 +27°C° 0 mm 1 mps 687 mmHg 23%
    08:00 +29°C° 0 mm 2 mps 687 mmHg 20%
    09:00 +32°C° 0 mm 2 mps 687 mmHg 16%
    10:00 +34°C° 0 mm 2 mps 687 mmHg 14%
    11:00 +36°C° 0 mm 2 mps 687 mmHg 12%
    12:00 +38°C° 0 mm 2 mps 686 mmHg 10%
    13:00 +39°C° 0 mm 3 mps 686 mmHg 9%
    14:00 +42°C° 0 mm 5 mps 686 mmHg 9%
    15:00 +44°C° 0 mm 6 mps 686 mmHg 8%
    16:00 +42°C° 0 mm 6 mps 685 mmHg 9%
    17:00 +40°C° 0 mm 6 mps 685 mmHg 10%
    18:00 +39°C° 0 mm 7 mps 685 mmHg 11%
    19:00 +35°C° 0 mm 6 mps 685 mmHg 13%
    20:00 +33°C° 0 mm 5 mps 685 mmHg 16%
    21:00 +29°C° 0 mm 4 mps 685 mmHg 19%
    22:00 +28°C° 0 mm 3 mps 685 mmHg 20%
    23:00 +27°C° 0 mm 2 mps 685 mmHg 21%

    Day after tomorrow, 23 August, Friday

    Time Temperature Precipitation Wind Pressure Humidity
    00:00 +26°C° 0 mm 2 mps 685 mmHg 23%
    01:00 +25°C° 0 mm 1 mps 685 mmHg 24%
    02:00 +25°C° 0 mm 1 mps 685 mmHg 25%
    03:00 +24°C° 0 mm 1 mps 685 mmHg 25%
    04:00 +24°C° 0 mm 1 mps 685 mmHg 26%
    05:00 +24°C° 0 mm 1 mps 685 mmHg 26%
    06:00 +21°C° 0 mm 0 mps 685 mmHg 27%
    07:00 +26°C° 0 mm 1 mps 686 mmHg 24%
    08:00 +28°C° 0 mm 1 mps 686 mmHg 20%
    09:00 +30°C° 0 mm 1 mps 687 mmHg 17%
    10:00 +32°C° 0 mm 1 mps 686 mmHg 15%
    11:00 +35°C° 0 mm 2 mps 686 mmHg 13%
    12:00 +37°C° 0 mm 2 mps 686 mmHg 11%
    13:00 +38°C° 0 mm 3 mps 686 mmHg 10%
    14:00 +40°C° 0 mm 4 mps 686 mmHg 9%
    15:00 +42°C° 0 mm 5 mps 686 mmHg 8%
    16:00 +41°C° 0 mm 5 mps 686 mmHg 9%
    17:00 +39°C° 0 mm 6 mps 685 mmHg 11%
    18:00 +38°C° 0 mm 6 mps 685 mmHg 13%
    19:00 +34°C° 0 mm 5 mps 686 mmHg 16%
    20:00 +32°C° 0 mm 4 mps 686 mmHg 20%
    21:00 +28°C° 0 mm 3 mps 686 mmHg 23%
    22:00 +27°C° 0 mm 2 mps 686 mmHg 25%
    23:00 +26°C° 0 mm 2 mps 686 mmHg 27%

    24 August, Saturday

    Time Temperature Precipitation Wind Pressure Humidity
    00:00 +25°C° 0 mm 1 mps 686 mmHg 29%
    01:00 +25°C° 0 mm 1 mps 686 mmHg 31%
    02:00 +24°C° 0 mm 1 mps 686 mmHg 32%
    03:00 +23°C° 0 mm 1 mps 685 mmHg 33%
    04:00 +23°C° 0 mm 1 mps 686 mmHg 34%
    05:00 +21°C° 0 mm 0 mps 686 mmHg 34%
    06:00 +21°C° 0 mm 0 mps 686 mmHg 34%
    07:00 +24°C° 0 mm 0 mps 687 mmHg 30%
    08:00 +28°C° 0 mm 1 mps 687 mmHg 26%
    09:00 +30°C° 0 mm 1 mps 688 mmHg 22%
    10:00 +32°C° 0 mm 1 mps 688 mmHg 20%
    11:00 +33°C° 0 mm 1 mps 688 mmHg 17%
    12:00 +35°C° 0 mm 1 mps 688 mmHg 15%
    13:00 +36°C° 0 mm 1 mps 688 mmHg 14%
    14:00 +37°C° 0 mm 1 mps 687 mmHg 12%
    15:00 +39°C° 0 mm 1 mps 687 mmHg 11%
    16:00 +39°C° 0 mm 1 mps 687 mmHg 11%
    17:00 +37°C° 0 mm 1 mps 687 mmHg 12%
    18:00 +37°C° 0 mm 1 mps 687 mmHg 12%
    19:00 +36°C° 0 mm 2 mps 688 mmHg 16%
    20:00 +32°C° 0 mm 2 mps 688 mmHg 19%
    21:00 +30°C° 0 mm 2 mps 688 mmHg 23%
    22:00 +29°C° 0 mm 2 mps 688 mmHg 27%
    23:00 +28°C° 0 mm 2 mps 688 mmHg 31%

    25 August, Sunday

    Time Temperature Precipitation Wind Pressure Humidity
    00:00 +27°C° 0 mm 2 mps 688 mmHg 35%
    01:00 +26°C° 0.1 mm 1 mps 688 mmHg 37%
    02:00 +25°C° 0.1 mm 1 mps 687 mmHg 40%
    03:00 +22°C° 0.1 mm 0 mps 687 mmHg 43%
    04:00 +22°C° 0 mm 0 mps 687 mmHg 43%
    05:00 +22°C° 0 mm 0 mps 687 mmHg 44%
    06:00 +22°C° 0 mm 0 mps 687 mmHg 44%
    07:00 +24°C° 0 mm 0 mps 688 mmHg 39%
    08:00 +28°C° 0 mm 1 mps 688 mmHg 33%
    09:00 +30°C° 0 mm 1 mps 688 mmHg 28%
    10:00 +32°C° 0 mm 1 mps 688 mmHg 24%
    11:00 +34°C° 0 mm 1 mps 688 mmHg 21%
    12:00 +36°C° 0 mm 1 mps 688 mmHg 17%
    13:00 +37°C° 0 mm 1 mps 688 mmHg 16%
    14:00 +39°C° 0 mm 2 mps 688 mmHg 14%
    15:00 +41°C° 0 mm 2 mps 687 mmHg 12%
    16:00 +40°C° 0 mm 3 mps 687 mmHg 13%
    17:00 +40°C° 0 mm 4 mps 687 mmHg 15%
    18:00 +39°C° 0 mm 6 mps 687 mmHg 16%
    19:00 +36°C° 0 mm 5 mps 687 mmHg 19%
    20:00 +34°C° 0 mm 4 mps 687 mmHg 23%
    21:00 +31°C° 0 mm 3 mps 687 mmHg 26%
    22:00 +30°C° 0 mm 3 mps 687 mmHg 27%
    23:00 +29°C° 0 mm 3 mps 687 mmHg 29%

    26 August, Monday

    Time Temperature Precipitation Wind Pressure Humidity
    00:00 +29°C° 0 mm 2 mps 687 mmHg 30%
    01:00 +28°C° 0 mm 2 mps 687 mmHg 31%
    02:00 +27°C° 0 mm 2 mps 687 mmHg 31%
    03:00 +26°C° 0 mm 1 mps 686 mmHg 32%
    04:00 +26°C° 0 mm 1 mps 686 mmHg 32%
    05:00 +26°C° 0 mm 1 mps 687 mmHg 33%
    06:00 +24°C° 0 mm 0 mps 687 mmHg 33%
    07:00 +28°C° 0 mm 1 mps 687 mmHg 29%
    08:00 +30°C° 0 mm 1 mps 687 mmHg 25%
    09:00 +32°C° 0 mm 1 mps 688 mmHg 21%
    10:00 +34°C° 0 mm 1 mps 688 mmHg 19%
    11:00 +36°C° 0 mm 2 mps 688 mmHg 17%
    12:00 +38°C° 0 mm 2 mps 687 mmHg 15%
    13:00 +39°C° 0 mm 2 mps 687 mmHg 13%
    14:00 +40°C° 0 mm 2 mps 687 mmHg 12%
    15:00 +41°C° 0 mm 2 mps 687 mmHg 10%
    16:00 +40°C° 0 mm 3 mps 687 mmHg 11%
    17:00 +40°C° 0 mm 3 mps 687 mmHg 11%
    18:00 +39°C° 0 mm 3 mps 687 mmHg 12%
    19:00 +36°C° 0 mm 4 mps 687 mmHg 15%
    20:00 +33°C° 0 mm 4 mps 687 mmHg 17%
    21:00 +30°C° 0 mm 4 mps 688 mmHg 20%
    22:00 +29°C° 0 mm 4 mps 688 mmHg 22%
    23:00 +28°C° 0 mm 3 mps 688 mmHg 24%
    Show more